Location: Huntsville
(41.2590°N, 111.7678°W)
Time: 02:36:23
(UTC+00:00)

ISS - Visible Passes

Search period start: 15 May 2021 00:00
Search period end: 25 May 2021 00:00
Orbit: 417 x 422 km, 51.6° (Epoch: 14 May)

Date Brightness Start Highest point End Pass type
(mag) Time Alt. Az. Time Alt. Az. Time Alt. Az.
15 May -3.8 04:33:29 10° SW 04:36:51 83° NW 04:40:14 10° NE visible
15 May -1.0 06:11:31 10° WNW 06:14:04 20° NNW 06:16:38 10° NNE visible
15 May -0.5 07:49:55 10° NNW 07:51:51 14° N 07:53:47 10° NE visible
15 May -1.6 09:26:32 10° NW 09:29:31 28° NNE 09:32:28 10° E visible
15 May -3.5 11:03:10 10° WNW 11:06:26 46° SW 11:09:41 10° SSE visible
16 May -3.8 03:46:08 10° SW 03:49:26 57° SE 03:52:44 10° ENE visible
16 May -1.4 05:23:35 10° W 05:26:26 25° NNW 05:29:18 10° NE visible
16 May -0.5 07:02:15 10° NW 07:04:08 14° N 07:06:02 10° NNE visible
16 May -1.1 08:39:12 10° NW 08:41:53 21° NNE 08:44:34 10° ENE visible
16 May -3.9 10:15:39 10° NW 10:19:02 82° SW 10:22:24 10° SE visible
17 May -2.0 04:35:45 10° W 04:38:51 34° NNW 04:41:58 10° NE visible
17 May -0.5 06:14:24 10° NW 06:16:25 15° N 06:18:27 10° NNE visible
17 May -0.8 07:51:51 10° NNW 07:54:14 18° NNE 07:54:22 18° NNE visible
17 May -1.7 09:33:42 20° ESE 09:33:42 20° ESE 09:34:54 10° ESE visible
17 May -2.1 11:07:12 15° WSW 11:08:03 16° SW 11:10:13 10° S visible
18 May -2.8 03:48:01 10° WSW 03:51:18 50° NNW 03:54:36 10° NE visible
18 May -0.7 05:26:27 10° NW 05:28:43 17° NNW 05:30:59 10° NNE visible
18 May -0.7 07:04:26 10° NNW 07:06:32 15° N 07:07:21 14° NNE visible
19 May -0.9 04:38:29 10° WNW 04:41:02 20° NNW 04:43:36 10° NNE visible
19 May -0.6 06:16:54 10° NNW 06:18:49 14° N 06:20:45 10° NE visible
19 May -0.7 07:53:30 10° NW 07:53:57 13° NNW 07:53:57 13° NNW visible
20 May -1.3 03:50:33 10° W 03:53:23 25° NNW 03:56:14 10° NE visible
20 May -0.6 05:29:11 10° NW 05:31:05 14° N 05:32:58 10° NNE visible
20 May -0.9 07:06:10 10° NNW 07:07:48 19° N 07:07:48 19° N visible
21 May -0.7 04:41:21 10° NW 04:43:21 15° N 04:45:22 10° NNE visible
21 May -1.1 06:18:47 10° NNW 06:21:10 18° NNE 06:21:44 17° NNE visible
22 May -0.8 03:53:23 10° NW 03:55:38 16° NNW 03:57:53 10° NNE visible
22 May -0.8 05:31:21 10° NNW 05:33:27 15° N 05:35:33 10° NE visible
22 May -0.9 07:07:45 10° NW 07:08:37 16° NW 07:08:37 16° NW visible
23 May -0.8 04:43:48 10° NNW 04:45:43 14° N 04:47:38 10° NE visible
23 May -1.5 06:20:24 10° NW 06:22:36 25° N 06:22:36 25° N visible
24 May -0.8 03:56:05 10° NW 03:57:58 14° N 03:59:51 10° NNE visible
24 May -1.5 05:33:02 10° NNW 05:35:43 21° NNE 05:36:37 19° NE visible
24 May -0.6 07:09:29 10° NW 07:09:33 10° NW 07:09:33 10° NW visible
